Starlink 6368

operational
NORAD ID: 57234 Int'l Des: 2023-094 Owner: SPXS Country: US Constellation: starlink
LEOCIRCULAR

Über Starlink 6368

Beschreibung wird geladen...

Live-Position

3D-Globus wird geladen...

Nächste Überflüge

Höhenverlauf

Altitude vs Time

uPlot chart will show altitude changes over time

Zweizeiliger Elementsatz

1 57234U 23094S 25304.51641985 .00000245 00000-0 33223-4 0 9990
2 57234 43.0043 11.8113 0001088 273.0039 87.0679 15.02537680127692
Epoch: 31. Okt. 2025 • Age: 16 hours

Aktueller Status

Höhe 569.2 km
Geschwindigkeit 7.58 km/s
Subsatellitenpunkt -36.98°S, 147°W
Startdatum 7. Juli 2023
Alter 2.3 years
Typ internet

Technische Details

Klassifizierung Payload
Masse 305.00 kg
Trockenmasse 290.00 kg
Gesamtmasse 305.00 kg
Länge 0.20 m
Durchmesser 2.80 m
Spannweite 9.00 m
Form Box + pan
Hersteller SPXS
Bus-Typ Starlink
Phasenstatus In Orbit
Besitzer/Staat SPXS/US

Große Konstellationen

Loading constellations...